Погода в Богородицке

Россия / Тульская область     53°46′14″N   38°07′54″E
темп.,
°C
ветер,
м/с
пор.,
м/с
влажн.,
%
обл.,
%
осадки,
мм/ч
давл.,
гПа
погр.,
м
14 июня, пн
пн1400:00+15ю229311 1.2 101023
03:00+14ююв229410 1.3 101126
06:00+16ююз239335 0.0 1013112
09:00+20ююз237950 0.0 1014506
12:00+23зюз23645 0.0 10141236
15:00+24зсз225920 0.3 10141449
18:00+24юз116619 1.2 10141045
21:00+19ююз118030 1.3 101411
15 июня, вт
вт1500:00+17зсз11855 0.0 101411
03:00+16сз11895 0.5 101411
06:00+18с118810 0.3 101442
09:00+22с117820 0.7 1014357
12:00+24св11635 0.6 10131232
15:00+25ссз21618 1.4 10111333
18:00+24вюв1169100 0.9 1010323
21:00+19ююз228493 1.9 101012
16 июня, ср
ср1600:00+17з2289100 1.3 101012
03:00+16сз339127 1.3 101035
06:00+17сз369487 0.0 1010195
09:00+21ссз56815 0.0 1011576
12:00+23ссз676814 0.0 10121252
15:00+23с68655 0.5 10131446
18:00+22ссв58750 0.0 10141017
21:00+17ссв48870 0.0 1016158
17 июня, чт
чт1700:00+14ссв4107997 0.0 1018203
03:00+12св34855 0.0 102150
06:00+13ссв49830 0.0 1022239
09:00+18св57650 0.0 1023548
12:00+20св56540 0.0 10241295
15:00+21ссв56550 0.0 10241431
18:00+20св36690 0.0 10241261
21:00+16с33790 0.0 102428
18 июня, пт
пт1800:00+14св33830 0.0 102629
03:00+13всв22800 0.0 102713
06:00+15св23790 0.0 102776
09:00+19всв23670 0.0 1027438
12:00+22всв23580 0.0 10281372
15:00+23всв23550 0.0 10271573
18:00+22в22630 0.0 10261354
21:00+17ююв22780 0.0 102711